Wind_Speed
15 15 15 16 17 17 17 18 18 19 20 22 21 21 21 20 21 21 22 22 23 24 26 26 27 28 29 30 31 31 32 33 33 33 34 34 33 33
14 14 14 15 16 17 18 18 18 18 18 20 21 21 21 21 21 22 23 24 24 25 26 26 27 28 29 30 30 31 32 34 35 35 35 34 34 34
13 13 14 15 17 17 17 18 19 19 19 21 22 22 21 22 22 23 24 25 26 27 27 28 29 30 30 31 31 32 32 34 35 35 35 35 35 36
13 14 15 15 16 17 18 19 20 20 21 21 23 24 24 24 24 25 26 27 27 28 29 30 31 31 32 31 32 32 33 34 34 35 35 36 36 36
14 15 16 16 17 18 19 20 20 21 22 22 23 24 24 25 25 26 27 28 29 29 30 30 30 31 31 32 33 33 33 34 35 35 35 36 37 38
13 14 15 16 17 18 19 20 21 22 23 23 23 24 25 26 26 27 28 28 30 30 30 30 31 32 33 33 34 35 35 35 36 37 37 38 38 39
14 15 15 16 17 18 19 20 21 22 23 23 24 25 26 26 27 28 29 30 30 31 32 33 34 34 34 35 35 36 36 36 37 38 39 40 39 39
15 15 16 17 18 19 19 20 21 22 23 24 25 25 26 27 27 28 30 31 32 33 34 35 35 35 35 35 35 36 37 38 38 38 38 38 39 39
15 16 17 18 18 19 21 21 21 22 23 25 25 26 27 27 28 29 31 32 32 33 34 35 36 36 36 37 37 37 37 38 38 39 39 39 39 39
17 18 18 19 20 21 21 22 23 24 24 25 26 27 28 29 29 30 32 33 33 34 35 36 36 37 38 38 38 39 39 39 39 39 39 39 40 40
19 20 21 22 22 22 22 23 24 25 26 27 28 28 29 30 31 32 33 33 34 34 35 36 37 38 38 39 39 40 40 40 39 39 39 39 39 39
21 22 22 23 24 24 24 24 25 26 27 28 28 29 30 31 32 33 33 34 35 36 36 37 38 38 38 39 40 40 40 40 40 40 40 40 39 39
23 23 24 25 24 24 25 26 27 27 28 29 30 31 32 33 33 34 35 36 36 36 37 37 38 38 38 38 38 39 39 38 39 39 39 39 39 38
24 24 25 25 25 26 26 27 28 29 30 31 31 32 33 34 35 36 36 37 37 37 37 37 37 37 36 36 36 36 36 36 36 36 36 36 36 36
25 25 26 26 27 27 28 29 30 31 32 32 33 34 35 36 36 36 36 37 36 36 35 35 35 35 35 35 35 35 35 34 34 34 34 34 34 34
26 26 27 27 28 29 30 30 32 33 33 34 35 36 36 36 36 35 36 36 35 35 34 34 34 34 34 34 34 33 33 33 32 32 32 32 33 33
27 27 28 29 29 30 31 32 33 34 35 36 36 36 36 36 35 35 35 35 34 34 34 34 33 33 33 33 32 32 32 33 32 32 31 30 30 30
28 29 30 30 31 32 33 34 35 35 35 36 36 36 35 35 35 35 35 34 34 34 34 33 33 33 33 33 32 32 32 32 31 30 29 28 28 28
30 31 32 33 34 35 35 35 35 35 35 35 34 34 35 35 35 34 34 34 34 33 33 32 32 32 32 32 31 31 30 30 30 29 28 27 27 26
31 33 34 35 35 35 35 35 35 35 35 35 34 34 35 34 34 34 34 33 33 32 32 31 31 31 31 31 30 30 29 29 28 28 26 26 26 25
33 34 35 36 36 36 35 35 35 35 35 35 35 35 34 34 33 33 32 32 32 31 31 31 31 30 30 30 29 29 29 29 28 27 26 25 25 25
34 35 36 36 35 35 35 34 34 35 35 35 34 34 34 33 32 32 32 31 31 31 30 30 30 30 30 30 30 29 29 28 28 27 26 25 25 25
35 35 35 35 34 34 34 34 34 34 34 34 33 33 32 32 32 32 31 31 31 31 31 30 30 30 30 30 30 29 28 27 27 26 26 26 25 25
Wind_Direction
283 278 275 276 279 282 284 285 286 284 284 285 286 285 287 287 286 284 285 286 287 287 287 286 285 284 284 282 279 278 277 276 274 274 276 275 273 273
286 281 279 281 285 286 286 287 288 289 288 288 288 288 287 287 286 286 286 286 288 288 288 287 286 286 287 285 281 279 278 278 277 276 277 275 273 273
286 285 283 282 285 285 285 286 288 289 288 287 288 287 287 288 288 289 289 289 289 290 289 288 287 286 287 286 284 282 282 280 278 276 276 276 274 274
288 286 287 287 287 286 285 287 289 290 290 288 287 286 286 288 288 288 288 290 290 289 289 289 289 288 287 287 285 284 282 281 281 280 278 278 277 276
297 290 286 287 289 288 288 288 289 291 292 292 290 288 288 289 289 289 289 290 291 290 290 289 290 290 289 288 286 285 284 283 282 282 281 279 277 277
303 299 293 293 293 292 291 290 290 292 293 294 292 291 290 290 291 291 291 292 292 292 291 290 291 291 290 289 288 286 286 285 283 281 280 279 278 277
306 305 301 299 300 299 297 296 295 294 294 295 295 294 294 294 292 291 291 294 294 294 294 293 292 291 290 289 288 287 286 285 284 282 281 280 280 279
308 305 304 303 302 302 302 301 302 300 297 295 295 295 298 299 298 296 295 296 295 295 295 294 293 292 291 291 290 289 287 285 284 283 283 282 281 280
311 308 306 305 305 304 302 302 302 301 299 299 297 298 299 299 299 298 298 298 297 296 296 296 295 294 293 293 292 291 289 288 287 286 286 284 283 282
310 311 309 308 308 305 303 302 302 302 302 302 301 299 299 300 299 299 299 299 298 298 297 297 297 296 296 295 293 292 290 290 288 287 285 284 282 281
308 307 306 306 306 305 304 303 303 303 304 305 303 301 301 302 302 301 300 300 300 300 300 300 299 298 297 296 295 293 291 290 289 288 286 284 283 282
307 307 306 305 304 305 305 304 304 305 305 305 305 304 304 305 304 303 302 302 302 302 302 301 300 299 298 297 296 295 293 292 290 288 287 286 284 283
306 307 308 307 306 307 307 306 305 306 306 306 305 305 305 305 305 304 304 304 305 304 304 303 302 301 300 299 298 296 295 294 293 291 289 287 286 284
308 308 308 308 308 307 307 306 306 306 306 306 306 306 306 306 305 305 305 306 306 306 306 305 304 303 303 302 301 300 299 297 295 294 292 289 287 286
310 310 309 308 307 307 307 307 307 307 307 307 307 307 307 307 306 306 306 307 307 307 307 307 306 306 306 306 305 304 303 301 298 296 294 292 290 289
309 309 309 309 308 307 307 307 308 308 308 308 308 308 308 307 307 307 307 308 308 308 308 308 308 307 307 308 308 307 306 304 303 301 298 295 293 291
310 310 310 310 309 309 309 309 309 309 309 309 309 309 308 307 307 307 307 308 308 308 308 308 308 308 308 308 307 306 306 306 306 304 301 299 297 295
310 310 310 310 310 310 310 310 310 310 310 310 311 311 310 309 309 308 308 307 307 307 308 308 308 308 309 309 308 307 306 307 307 306 304 302 300 299
309 309 309 310 310 310 310 311 311 311 311 311 312 312 311 311 310 310 309 308 308 307 308 308 308 308 309 309 309 309 308 307 306 305 303 303 303 302
308 309 309 310 310 310 311 311 312 312 312 312 312 312 312 311 310 310 310 310 309 308 309 309 309 310 310 309 309 309 309 309 307 306 305 304 305 305
308 308 309 310 311 311 312 312 313 313 313 313 313 313 312 311 311 310 311 311 310 309 309 309 309 309 310 310 310 311 311 310 309 308 306 305 306 307
308 309 310 311 312 313 313 313 314 314 314 314 314 314 313 311 311 311 312 311 311 310 310 310 309 309 309 310 310 311 310 310 310 309 308 306 306 307
308 310 311 311 312 313 314 314 314 315 315 316 316 315 315 315 314 314 313 313 312 311 311 311 310 310 309 310 310 310 310 310 310 309 308 307 307 307
Height
5877 5876 5876 5876 5875 5875 5874 5873 5873 5871 5870 5868 5867 5866 5864 5863 5862 5861 5860 5859 5858 5856 5854 5853 5851 5850 5848 5847 5845 5844 5843 5841 5840 5840 5839 5838 5838 5837
5874 5873 5873 5872 5871 5871 5870 5869 5868 5867 5866 5864 5862 5861 5859 5858 5857 5856 5854 5853 5852 5850 5848 5846 5844 5843 5841 5839 5837 5836 5835 5833 5831 5830 5829 5829 5828 5827
5871 5870 5869 5868 5868 5867 5866 5865 5863 5862 5861 5859 5857 5855 5854 5853 5851 5850 5848 5847 5845 5843 5841 5839 5837 5835 5833 5831 5829 5828 5826 5824 5822 5821 5820 5819 5818 5818
5867 5866 5865 5864 5863 5862 5861 5860 5858 5857 5855 5854 5852 5850 5848 5847 5845 5844 5842 5840 5838 5836 5834 5832 5830 5827 5825 5823 5821 5819 5817 5816 5813 5812 5811 5810 5808 5807
5863 5861 5860 5859 5858 5857 5856 5855 5853 5851 5849 5848 5846 5844 5842 5841 5839 5837 5835 5833 5831 5829 5827 5824 5822 5819 5817 5815 5813 5811 5808 5807 5805 5803 5801 5799 5798 5797
5859 5858 5856 5855 5854 5852 5850 5849 5847 5846 5844 5842 5840 5838 5837 5834 5833 5831 5828 5826 5823 5821 5819 5816 5813 5811 5809 5806 5804 5802 5799 5797 5795 5793 5791 5789 5787 5786
5856 5854 5853 5851 5850 5848 5846 5844 5842 5840 5838 5837 5835 5833 5831 5828 5826 5824 5821 5819 5816 5813 5811 5808 5805 5802 5800 5797 5794 5792 5789 5787 5784 5782 5780 5778 5776 5774
5853 5851 5849 5847 5846 5844 5841 5839 5837 5835 5833 5831 5829 5827 5824 5822 5819 5816 5814 5811 5808 5806 5802 5799 5796 5793 5790 5787 5784 5781 5779 5776 5774 5771 5769 5767 5765 5763
5850 5848 5846 5844 5841 5839 5837 5835 5832 5830 5828 5825 5823 5820 5818 5815 5812 5809 5806 5803 5800 5797 5793 5790 5787 5783 5780 5777 5774 5771 5768 5765 5763 5760 5758 5755 5753 5751
5847 5844 5842 5840 5837 5835 5832 5830 5827 5825 5822 5819 5817 5814 5811 5808 5805 5802 5798 5795 5792 5788 5785 5781 5777 5773 5770 5766 5763 5760 5757 5754 5751 5749 5746 5744 5741 5739
5843 5840 5838 5835 5832 5830 5827 5824 5822 5819 5816 5813 5810 5807 5804 5800 5797 5794 5790 5786 5783 5779 5775 5771 5767 5763 5759 5756 5752 5749 5745 5742 5739 5737 5734 5731 5729 5727
5839 5836 5833 5830 5827 5824 5822 5819 5816 5813 5810 5807 5803 5800 5796 5793 5789 5785 5781 5778 5774 5770 5766 5762 5757 5753 5749 5745 5741 5737 5734 5730 5727 5724 5722 5719 5717 5715
5834 5831 5828 5825 5822 5819 5816 5813 5810 5806 5803 5799 5796 5792 5789 5785 5781 5777 5773 5769 5765 5760 5756 5752 5747 5743 5738 5734 5730 5726 5722 5719 5715 5712 5709 5707 5704 5702
5829 5825 5822 5819 5816 5813 5810 5806 5803 5800 5796 5792 5788 5784 5780 5776 5772 5767 5763 5759 5755 5750 5746 5741 5737 5733 5729 5724 5720 5716 5712 5708 5704 5701 5698 5695 5692 5690
5823 5820 5816 5813 5810 5807 5803 5800 5796 5792 5788 5784 5780 5776 5772 5767 5763 5758 5754 5749 5745 5740 5736 5732 5727 5723 5719 5715 5710 5706 5702 5698 5694 5690 5687 5684 5681 5679
5817 5814 5810 5807 5804 5800 5796 5793 5789 5785 5780 5776 5772 5767 5763 5758 5754 5749 5745 5740 5736 5731 5727 5723 5718 5714 5710 5705 5701 5697 5693 5689 5684 5680 5677 5674 5671 5668
5811 5807 5804 5800 5797 5793 5789 5785 5781 5776 5772 5767 5763 5758 5753 5749 5745 5740 5736 5731 5727 5723 5719 5714 5709 5705 5701 5697 5693 5688 5684 5680 5676 5672 5668 5664 5661 5658
5805 5801 5797 5793 5789 5785 5781 5777 5772 5768 5763 5758 5754 5749 5745 5740 5736 5731 5727 5722 5718 5714 5710 5706 5701 5697 5693 5688 5685 5681 5676 5672 5667 5663 5660 5656 5653 5650
5798 5794 5790 5786 5781 5777 5773 5768 5764 5759 5754 5750 5745 5740 5736 5731 5727 5722 5718 5714 5709 5705 5701 5697 5693 5689 5685 5681 5676 5672 5668 5664 5660 5656 5652 5649 5646 5643
5790 5786 5782 5777 5773 5769 5764 5760 5755 5750 5746 5741 5736 5732 5727 5723 5718 5714 5709 5705 5701 5697 5693 5689 5685 5681 5677 5673 5669 5665 5660 5656 5652 5649 5645 5642 5638 5635
5782 5778 5773 5769 5764 5760 5755 5751 5746 5742 5737 5732 5728 5723 5719 5714 5710 5705 5701 5697 5693 5689 5685 5681 5677 5673 5669 5665 5661 5657 5653 5648 5645 5641 5638 5635 5632 5629
5773 5769 5765 5760 5756 5751 5747 5742 5738 5733 5729 5724 5719 5715 5710 5706 5702 5697 5693 5689 5685 5681 5677 5673 5669 5665 5661 5658 5653 5650 5646 5642 5637 5634 5631 5628 5625 5622
5765 5761 5756 5752 5747 5743 5739 5734 5730 5725 5721 5716 5711 5707 5702 5698 5694 5689 5685 5681 5677 5673 5669 5665 5661 5657 5653 5650 5646 5642 5638 5634 5631 5627 5624 5621 5618 5615